Location: eljas
(40.1958°N, 6.8661°W)
Time: 05:21:40
(UTC+02:00)

ISS - All Passes

Search period start: 04 August 2015 00:00
Search period end: 14 August 2015 00:00
Orbit: 401 x 403 km, 51.6° (Epoch: 03 August)

Date Brightness Start Highest point End Pass type
(mag) Time Alt. Az. Time Alt. Az. Time Alt. Az.
04 Aug - 01:01:34 10° NNW 01:02:43 11° N 01:03:52 10° NNE visible
04 Aug - 02:38:05 10° NNW 02:40:11 16° NNE 02:42:19 10° ENE visible
04 Aug - 04:13:52 10° NW 04:17:07 67° NE 04:20:22 10° ESE night (unlit)
04 Aug - 05:51:40 10° WSW 05:53:13 13° SW 05:54:39 10° SSW night (unlit)
04 Aug - 20:53:05 10° SSW 20:55:50 26° SE 20:58:37 10° ENE daylight
04 Aug - 22:29:09 10° W 22:32:10 35° NNW 22:35:13 10° NE visible
05 Aug - 00:07:47 10° NW 00:09:21 13° N 00:10:54 10° NNE visible
05 Aug - 01:45:17 10° NNW 01:46:52 13° N 01:48:28 10° NE visible
05 Aug - 03:20:57 10° NW 03:24:01 36° NNE 03:27:05 10° E night (unlit)
05 Aug - 04:57:36 10° WNW 05:00:21 24° SW 05:03:03 10° S night (unlit)
05 Aug - 20:01:21 10° SSE 20:02:57 13° SE 20:04:40 10° E daylight
05 Aug - 21:35:50 10° WSW 21:39:03 63° NW 21:42:18 10° NE daylight
05 Aug - 23:13:56 10° NW 23:16:00 16° NNW 23:18:03 10° NNE visible
06 Aug - 00:52:19 10° NNW 00:53:29 11° N 00:54:40 10° NNE visible
06 Aug - 02:28:07 10° NNW 02:30:49 23° NNE 02:33:32 10° E visible
06 Aug - 04:04:14 10° WNW 04:07:25 50° SW 04:10:34 10° SE night (unlit)
06 Aug - 20:42:48 10° SW 20:46:00 65° SE 20:49:15 10° ENE daylight
06 Aug - 22:20:08 10° WNW 22:22:42 21° NNW 22:25:15 10° NNE visible
06 Aug - 23:59:00 10° NNW 00:00:05 11° N 00:01:10 10° NNE visible
07 Aug - 01:35:18 10° NNW 01:37:31 17° NNE 01:39:48 10° ENE visible
07 Aug - 03:11:07 10° NW 03:14:23 80° NE 03:17:39 10° SE night (unlit)
07 Aug - 04:49:45 10° WSW 04:50:25 10° SW 04:50:57 10° SW night (unlit)
07 Aug - 19:50:07 10° SSW 19:53:02 31° SE 19:55:59 10° ENE daylight
07 Aug - 21:26:30 10° W 21:29:27 31° NNW 21:32:24 10° NE daylight
07 Aug - 23:05:15 10° NW 23:06:41 12° N 23:08:06 10° NNE visible
08 Aug - 00:42:28 10° NNW 00:44:11 13° NNE 00:45:55 10° NE visible
08 Aug - 02:18:09 10° NW 02:21:17 42° NNE 02:24:24 10° ESE visible
08 Aug - 03:55:01 10° W 03:57:33 21° SW 04:00:01 10° S night (unlit)
08 Aug - 18:58:04 10° S 19:00:06 16° SE 19:02:14 10° E daylight
08 Aug - 20:33:04 10° WSW 20:36:16 53° NNW 20:39:28 10° NE daylight
08 Aug - 22:11:21 10° NW 22:13:17 15° NNW 22:15:11 10° NNE visible
08 Aug - 23:49:31 10° NNW 23:50:46 12° N 23:52:02 10° NNE visible
09 Aug - 01:25:16 10° NNW 01:28:04 26° NNE 01:30:53 10° E visible
09 Aug - 03:01:29 10° WNW 03:04:35 41° SW 03:07:39 10° SSE night (unlit)
09 Aug - 19:39:55 10° SW 19:43:10 79° SE 19:46:26 10° NE daylight
09 Aug - 21:17:29 10° WNW 21:19:56 19° NNW 21:22:21 10° NNE daylight
09 Aug - 22:56:17 10° NNW 22:57:20 11° N 22:58:24 10° NNE visible
10 Aug - 00:32:24 10° NNW 00:34:45 18° NNE 00:37:09 10° ENE visible
10 Aug - 02:08:17 10° NW 02:11:33 86° SW 02:14:48 10° SE visible
10 Aug - 18:47:07 10° SSW 18:50:09 37° SE 18:53:11 10° ENE daylight
10 Aug - 20:23:46 10° W 20:26:37 27° NNW 20:29:29 10° NE daylight
10 Aug - 22:02:34 10° NNW 22:03:53 12° N 22:05:11 10° NNE visible
10 Aug - 23:39:32 10° NNW 23:41:23 14° NNE 23:43:16 10° NE visible
11 Aug - 01:15:14 10° NW 01:18:25 49° NNE 01:21:36 10° ESE visible
11 Aug - 02:52:20 10° W 02:54:37 17° SW 02:56:49 10° S night (unlit)
11 Aug - 17:54:49 10° S 17:57:09 19° SE 17:59:35 10° E daylight
11 Aug - 19:30:15 10° WSW 19:33:23 45° NNW 19:36:32 10° NE daylight
11 Aug - 21:08:39 10° NW 21:10:27 14° NNW 21:12:14 10° NNE daylight
11 Aug - 22:46:36 10° NNW 22:47:57 12° N 22:49:19 10° NNE visible
12 Aug - 00:22:17 10° NW 00:25:12 29° NNE 00:28:06 10° E visible
12 Aug - 01:58:39 10° WNW 02:01:38 34° SW 02:04:37 10° SSE night (unlit)
12 Aug - 18:36:58 10° SW 18:40:14 87° NNW 18:43:30 10° NE daylight
12 Aug - 20:14:44 10° WNW 20:17:03 18° NNW 20:19:21 10° NNE daylight
12 Aug - 21:53:25 10° NNW 21:54:29 11° N 21:55:33 10° NNE visible
12 Aug - 23:29:23 10° NNW 23:31:52 20° NNE 23:34:23 10° ENE visible
13 Aug - 01:05:21 10° WNW 01:08:35 71° SW 01:11:50 10° SE visible
13 Aug - 17:44:01 10° SSW 17:47:08 45° SE 17:50:16 10° ENE daylight
13 Aug - 19:20:55 10° W 19:23:41 25° NNW 19:26:27 10° NNE daylight
13 Aug - 20:59:47 10° NNW 21:01:00 12° N 21:02:12 10° NNE daylight
13 Aug - 22:36:29 10° NNW 22:38:28 15° NNE 22:40:29 10° NE visible
